BAW1372 EGLL-EGCC

Flight info

Callsign BAW1372
Flight time 0h 32m
Altitude 18000
Route ULTIB T420 ELVOS
Aircraft A320/M-SDE3FGHIRWY/LB1

Departure

Time 2026-05-05 22:52
Airport London Heathrow Airport (EGLL)

Arrival

Time 2026-05-05 23:24
Airport Manchester Airport (EGCC)
Time Latitude Longitude Altitude Speed Heading
2026-05-05 22:17 51.47187 -0.48606 91 ft 0 kts 269°
2026-05-05 22:33 51.47187 -0.48605 87 ft 0 kts 269°
2026-05-05 22:40 51.47187 -0.48575 90 ft 4 kts 267°
2026-05-05 22:41 51.47190 -0.48532 88 ft 4 kts 259°
2026-05-05 22:41 51.47198 -0.48492 90 ft 4 kts 231°
2026-05-05 22:41 51.47211 -0.48476 90 ft 0 kts 179°
2026-05-05 22:42 51.47212 -0.48476 90 ft 0 kts 179°
2026-05-05 22:45 51.47211 -0.48476 90 ft 0 kts 179°
2026-05-05 22:45 51.47205 -0.48476 89 ft 2 kts 179°
2026-05-05 22:45 51.47183 -0.48475 89 ft 4 kts 179°
2026-05-05 22:46 51.47146 -0.48475 87 ft 6 kts 179°
2026-05-05 22:46 51.47118 -0.48475 87 ft 0 kts 179°
2026-05-05 22:46 51.47104 -0.48474 87 ft 3 kts 179°
2026-05-05 22:47 51.47075 -0.48474 87 ft 5 kts 179°
2026-05-05 22:47 51.47031 -0.48474 87 ft 7 kts 179°
2026-05-05 22:47 51.47025 -0.48474 87 ft 0 kts 179°
2026-05-05 22:47 51.47019 -0.48474 87 ft 2 kts 179°
2026-05-05 22:48 51.46996 -0.48473 87 ft 4 kts 179°
2026-05-05 22:48 51.46958 -0.48473 87 ft 6 kts 179°
2026-05-05 22:48 51.46906 -0.48472 89 ft 9 kts 179°
2026-05-05 22:48 51.46839 -0.48471 88 ft 11 kts 179°
2026-05-05 22:49 51.46758 -0.48479 87 ft 12 kts 206°
2026-05-05 22:49 51.46739 -0.48616 87 ft 14 kts 269°
2026-05-05 22:49 51.46700 -0.48750 89 ft 15 kts 198°
2026-05-05 22:49 51.46601 -0.48769 90 ft 8 kts 200°
2026-05-05 22:50 51.46597 -0.48772 90 ft 0 kts 200°
2026-05-05 22:50 51.46579 -0.48782 88 ft 5 kts 200°
2026-05-05 22:50 51.46540 -0.48791 87 ft 7 kts 175°
2026-05-05 22:50 51.46490 -0.48750 88 ft 12 kts 132°
2026-05-05 22:51 51.46478 -0.48523 88 ft 44 kts 89°
2026-05-05 22:51 51.46481 -0.47680 86 ft 105 kts 89°
2026-05-05 22:51 51.46483 -0.46247 91 ft 151 kts 90°
2026-05-05 22:51 51.46478 -0.44591 639 ft 148 kts 88°
2026-05-05 22:52 51.46500 -0.42923 1208 ft 151 kts 86°
2026-05-05 22:52 51.46682 -0.41211 1575 ft 165 kts 65°
2026-05-05 22:52 51.47360 -0.39589 1834 ft 187 kts 50°
2026-05-05 22:52 51.48225 -0.37897 2164 ft 206 kts 51°
2026-05-05 22:53 51.49179 -0.36007 2545 ft 229 kts 51°
2026-05-05 22:53 51.50216 -0.33943 3180 ft 244 kts 51°
2026-05-05 22:53 51.51290 -0.31796 4042 ft 249 kts 51°
2026-05-05 22:53 51.52327 -0.29538 4923 ft 255 kts 60°
2026-05-05 22:54 51.52981 -0.26846 5764 ft 262 kts 69°
2026-05-05 22:54 51.53890 -0.24311 6562 ft 265 kts 44°
2026-05-05 22:54 51.55416 -0.22683 7330 ft 267 kts 18°
2026-05-05 22:54 51.57255 -0.22388 8127 ft 269 kts 350°
2026-05-05 22:55 51.59081 -0.23124 9018 ft 272 kts 346°
2026-05-05 22:55 51.60939 -0.23779 9868 ft 275 kts 345°
2026-05-05 22:55 51.62738 -0.24867 10566 ft 281 kts 332°
2026-05-05 22:55 51.64528 -0.26441 10784 ft 304 kts 330°
2026-05-05 22:56 51.66424 -0.28218 10940 ft 327 kts 329°
2026-05-05 22:56 51.68432 -0.30154 11253 ft 342 kts 329°
2026-05-05 22:56 51.70486 -0.32157 11852 ft 348 kts 328°
2026-05-05 22:56 51.72568 -0.34191 12493 ft 352 kts 328°
2026-05-05 22:57 51.74675 -0.36244 13131 ft 356 kts 328°
2026-05-05 22:57 51.76809 -0.38316 13787 ft 360 kts 328°
2026-05-05 22:57 51.78969 -0.40410 14323 ft 364 kts 328°
2026-05-05 22:57 51.81148 -0.42520 14895 ft 367 kts 328°
2026-05-05 22:58 51.83356 -0.44657 15452 ft 371 kts 327°
2026-05-05 22:58 51.85581 -0.46810 15998 ft 375 kts 327°
2026-05-05 22:58 51.87831 -0.48992 16563 ft 379 kts 327°
2026-05-05 22:58 51.90071 -0.51174 17125 ft 383 kts 327°
2026-05-05 22:59 51.92367 -0.53411 17691 ft 387 kts 327°
2026-05-05 22:59 51.94717 -0.55699 17958 ft 390 kts 327°
2026-05-05 22:59 51.97050 -0.57973 18012 ft 406 kts 327°
2026-05-05 22:59 51.99554 -0.60423 18012 ft 423 kts 327°
2026-05-05 23:00 52.04626 -0.65412 18013 ft 432 kts 327°
2026-05-05 23:00 52.07202 -0.67939 18017 ft 433 kts 327°
2026-05-05 23:00 52.09779 -0.70475 18018 ft 433 kts 327°
2026-05-05 23:01 52.12354 -0.73011 18022 ft 433 kts 327°
2026-05-05 23:01 52.14939 -0.75549 18028 ft 433 kts 327°
2026-05-05 23:01 52.17515 -0.78080 18025 ft 433 kts 327°
2026-05-05 23:01 52.20092 -0.80623 18031 ft 433 kts 327°
2026-05-05 23:02 52.22664 -0.83177 18035 ft 433 kts 327°
2026-05-05 23:02 52.25234 -0.85732 18036 ft 432 kts 327°
2026-05-05 23:02 52.27804 -0.88289 18030 ft 432 kts 327°
2026-05-05 23:02 52.30367 -0.90838 18030 ft 432 kts 327°
2026-05-05 23:03 52.32931 -0.93388 18030 ft 431 kts 327°
2026-05-05 23:03 52.35497 -0.95941 18025 ft 431 kts 327°
2026-05-05 23:03 52.38056 -0.98494 18024 ft 431 kts 327°
2026-05-05 23:03 52.40618 -1.01053 18017 ft 431 kts 327°
2026-05-05 23:04 52.43175 -1.03612 18018 ft 431 kts 326°
2026-05-05 23:04 52.45699 -1.06145 18020 ft 431 kts 326°
2026-05-05 23:04 52.48253 -1.08705 18018 ft 431 kts 326°
2026-05-05 23:04 52.50811 -1.11267 18021 ft 431 kts 327°
2026-05-05 23:05 52.53364 -1.13833 18023 ft 431 kts 326°
2026-05-05 23:05 52.55919 -1.16408 18019 ft 430 kts 326°
2026-05-05 23:05 52.58472 -1.18987 18019 ft 430 kts 326°
2026-05-05 23:05 52.61025 -1.21570 18018 ft 430 kts 326°
2026-05-05 23:06 52.63598 -1.24175 18024 ft 430 kts 326°
2026-05-05 23:06 52.66125 -1.26734 17994 ft 430 kts 326°
2026-05-05 23:06 52.68678 -1.29326 17989 ft 430 kts 326°
2026-05-05 23:06 52.71220 -1.31908 17989 ft 430 kts 326°
2026-05-05 23:07 52.73760 -1.34491 17994 ft 425 kts 326°
2026-05-05 23:07 52.76236 -1.37004 17716 ft 409 kts 326°
2026-05-05 23:07 52.78600 -1.39403 17442 ft 402 kts 326°
2026-05-05 23:07 52.80996 -1.41842 17098 ft 396 kts 326°
2026-05-05 23:08 52.83297 -1.44198 16547 ft 392 kts 326°
2026-05-05 23:08 52.85602 -1.46569 15989 ft 388 kts 326°
2026-05-05 23:08 52.87886 -1.48920 15420 ft 385 kts 327°
2026-05-05 23:08 52.90154 -1.51252 14851 ft 381 kts 327°
2026-05-05 23:09 52.92398 -1.53563 14253 ft 378 kts 327°
2026-05-05 23:09 52.94626 -1.55858 13658 ft 375 kts 327°
2026-05-05 23:09 52.96829 -1.58127 13031 ft 371 kts 327°
2026-05-05 23:09 52.98979 -1.60342 12838 ft 355 kts 327°
2026-05-05 23:10 53.01031 -1.62456 12707 ft 340 kts 327°
2026-05-05 23:10 53.02990 -1.64477 12573 ft 321 kts 327°
2026-05-05 23:10 53.04794 -1.66419 12401 ft 297 kts 322°
2026-05-05 23:10 53.06287 -1.68674 11979 ft 285 kts 310°
2026-05-05 23:11 53.07553 -1.71164 11736 ft 281 kts 310°
2026-05-05 23:11 53.08821 -1.73638 11488 ft 281 kts 310°
2026-05-05 23:11 53.10091 -1.76095 11230 ft 280 kts 310°
2026-05-05 23:11 53.11360 -1.78545 10982 ft 279 kts 310°
2026-05-05 23:12 53.12621 -1.80985 10735 ft 277 kts 311°
2026-05-05 23:12 53.13875 -1.83417 10491 ft 276 kts 311°
2026-05-05 23:12 53.15124 -1.85845 10244 ft 275 kts 311°
2026-05-05 23:12 53.16371 -1.88278 9847 ft 277 kts 311°
2026-05-05 23:13 53.17625 -1.90722 9481 ft 276 kts 311°
2026-05-05 23:13 53.18858 -1.93125 9213 ft 271 kts 311°
2026-05-05 23:13 53.20079 -1.95508 8879 ft 269 kts 311°
2026-05-05 23:13 53.21284 -1.97863 8699 ft 263 kts 311°
2026-05-05 23:14 53.22442 -2.00143 8523 ft 251 kts 308°
2026-05-05 23:14 53.23310 -2.02603 8116 ft 245 kts 292°
2026-05-05 23:14 53.23716 -2.05346 7627 ft 245 kts 276°
2026-05-05 23:14 53.23684 -2.08186 7131 ft 245 kts 268°
2026-05-05 23:15 53.23575 -2.11014 6628 ft 243 kts 268°
2026-05-05 23:15 53.23474 -2.13790 6132 ft 242 kts 269°
2026-05-05 23:15 53.23373 -2.16585 5583 ft 242 kts 269°
2026-05-05 23:15 53.23270 -2.19385 5053 ft 241 kts 269°
2026-05-05 23:16 53.23167 -2.22134 4745 ft 230 kts 269°
2026-05-05 23:16 53.23067 -2.24701 4605 ft 213 kts 269°
2026-05-05 23:16 53.22977 -2.27034 4499 ft 189 kts 269°
2026-05-05 23:16 53.22896 -2.29143 4191 ft 179 kts 270°
2026-05-05 23:17 53.22820 -2.31184 3868 ft 171 kts 269°
2026-05-05 23:17 53.22748 -2.33128 3581 ft 162 kts 269°
2026-05-05 23:17 53.22680 -2.34899 3324 ft 149 kts 269°
2026-05-05 23:17 53.22616 -2.36626 2986 ft 148 kts 269°
2026-05-05 23:18 53.22557 -2.38363 3009 ft 153 kts 269°
2026-05-05 23:18 53.22500 -2.40144 3011 ft 154 kts 269°
2026-05-05 23:18 53.22444 -2.41906 3005 ft 153 kts 269°
2026-05-05 23:18 53.22390 -2.43708 3003 ft 154 kts 269°
2026-05-05 23:19 53.22338 -2.45475 2998 ft 154 kts 269°
2026-05-05 23:19 53.22307 -2.46683 3004 ft 154 kts 271°
2026-05-05 23:19 53.22935 -2.48583 2994 ft 145 kts 334°
2026-05-05 23:19 53.23877 -2.48965 2942 ft 138 kts
2026-05-05 23:20 53.24743 -2.48385 2858 ft 134 kts 43°
2026-05-05 23:20 53.25148 -2.47618 2790 ft 133 kts 53°
2026-05-05 23:20 53.25933 -2.46015 2566 ft 133 kts 52°
2026-05-05 23:20 53.26524 -2.44825 2424 ft 133 kts 52°
2026-05-05 23:21 53.26915 -2.44035 2305 ft 133 kts 52°
2026-05-05 23:21 53.27499 -2.42839 2049 ft 132 kts 53°
2026-05-05 23:21 53.28083 -2.41660 1789 ft 131 kts 52°
2026-05-05 23:21 53.28653 -2.40475 1608 ft 131 kts 53°
2026-05-05 23:22 53.29164 -2.39396 1467 ft 131 kts 53°
2026-05-05 23:22 53.29739 -2.38214 1303 ft 131 kts 53°
2026-05-05 23:22 53.30261 -2.37135 1121 ft 132 kts 52°
2026-05-05 23:22 53.30840 -2.35947 923 ft 133 kts 51°
2026-05-05 23:23 53.31421 -2.34755 771 ft 132 kts 52°
2026-05-05 23:23 53.31991 -2.33539 604 ft 133 kts 52°
2026-05-05 23:23 53.32585 -2.32344 438 ft 133 kts 52°
2026-05-05 23:23 53.33170 -2.31138 309 ft 133 kts 52°
2026-05-05 23:24 53.33730 -2.29969 242 ft 116 kts 52°
2026-05-05 23:24 53.34138 -2.29123 234 ft 69 kts 50°
2026-05-05 23:24 53.34339 -2.28709 230 ft 25 kts 47°
2026-05-05 23:24 53.34453 -2.28573 233 ft 21 kts 25°
2026-05-05 23:25 53.34571 -2.28492 233 ft 7 kts 20°
2026-05-05 23:25 53.34611 -2.28467 235 ft 0 kts 21°
2026-05-05 23:25 53.34614 -2.28464 234 ft 2 kts 21°
2026-05-05 23:26 53.34634 -2.28452 233 ft 4 kts 21°
2026-05-05 23:26 53.34672 -2.28428 233 ft 7 kts 21°
2026-05-05 23:26 53.34725 -2.28378 233 ft 10 kts 40°
2026-05-05 23:26 53.34777 -2.28272 233 ft 13 kts 52°
2026-05-05 23:27 53.34838 -2.28135 233 ft 16 kts 52°
2026-05-05 23:27 53.34914 -2.27991 233 ft 12 kts 28°
2026-05-05 23:27 53.34996 -2.28002 234 ft 10 kts 314°
2026-05-05 23:27 53.35057 -2.28100 232 ft 14 kts 319°
2026-05-05 23:28 53.35144 -2.28204 232 ft 16 kts 341°
2026-05-05 23:28 53.35244 -2.28191 235 ft 15 kts
2026-05-05 23:28 53.35341 -2.28112 233 ft 17 kts 42°
2026-05-05 23:28 53.35425 -2.27974 233 ft 14 kts 45°
2026-05-05 23:29 53.35494 -2.27858 233 ft 17 kts 45°
2026-05-05 23:29 53.35570 -2.27737 233 ft 17 kts 45°
2026-05-05 23:29 53.35662 -2.27585 233 ft 20 kts 45°
2026-05-05 23:29 53.35756 -2.27396 233 ft 22 kts 56°
2026-05-05 23:30 53.35823 -2.27239 233 ft 15 kts 69°
2026-05-05 23:30 53.35805 -2.27074 233 ft 16 kts 73°
2026-05-05 23:30 53.35868 -2.26910 233 ft 18 kts 50°
2026-05-05 23:30 53.35932 -2.26755 234 ft 6 kts 57°
2026-05-05 23:31 53.35979 -2.26735 233 ft 9 kts 336°
2026-05-05 23:31 53.36031 -2.26728 235 ft 4 kts 34°
2026-05-05 23:31 53.36055 -2.26736 233 ft 4 kts 322°
2026-05-05 23:31 53.36064 -2.26749 235 ft 1 kts 316°
2026-05-05 23:32 53.36071 -2.26761 234 ft 2 kts 316°
2026-05-05 23:32 53.36083 -2.26781 233 ft 3 kts 315°
2026-05-05 23:32 53.36092 -2.26796 233 ft 0 kts 316°